Regional Weather Roundup
Issued by NWS

Home | Current Version | Previous Version | Text Only | Print | Product List | Glossary On
Versions: 1 2 3 4 5 6 7 8 9 10 11 12 13 14 15 16 17 18 19 20 21 22 23 24 25 26 27 28 29 30 31 32 33 34 35 36 37 38 39 40 41 42 43 44 45 46 47 48 49 50
000
ASUS43 KTOP 281059
RWRKS

WEATHER ROUNDUP FOR KANSAS
NATIONAL WEATHER SERVICE GOODLAND KS
600 AM CDT WED JUN 28 2017

NOTE:  "FAIR" INDICATES FEW OR NO CLOUDS BELOW 12,000 FEET WITH NO
SIGNIFICANT WEATHER AND/OR OBSTRUCTIONS TO VISIBILITY.

KSZ001>006-013>018-027>032-041>047-281200-
NORTHWEST KANSAS

CITY           SKY/WX    TMP DP  RH WIND       PRES   REMARKS
GOODLAND       CLEAR     60  58  92 W3        29.81R
HAYS           LGT RAIN  68  64  87 S13       29.77F
HILL CITY      CLEAR     70  62  76 S13G21    29.74S
RUSSELL        LGT RAIN  69  64  84 S13       29.79R
$$

KSZ061>065-074>080-084>089-281200-
SOUTHWEST KANSAS

CITY           SKY/WX    TMP DP  RH WIND       PRES   REMARKS
DODGE CITY     CLEAR     70  66  87 SE18      29.80F
ELKHART          N/A     71  47  42 S14         N/A
GARDEN CITY    MOCLDY    72  58  61 SE15      29.78R
GREAT BEND     CLOUDY    73  66  78 S15       29.79R
LIBERAL        CLOUDY    73  61  65 S22       29.78S
$$

KSZ066>073-081>083-090>101-281200-
SOUTHEAST KANSAS

CITY           SKY/WX    TMP DP  RH WIND       PRES   REMARKS
CHANUTE          N/A    N/A N/A N/A MISG      29.92R
COFFEYVILLE    CLEAR     69  64  84 SE8       29.92R
HUTCHINSON     CLOUDY    75  65  70 S16       29.83F
MEDICINE LODGE   N/A     71  65  81 NE5       29.86R
NEWTON         CLOUDY    73  66  78 SW15      29.90R
PARSONS        CLEAR     70  64  81 S6        29.94R
WICHITA INTL   CLOUDY    73  67  81 S10       29.88R
WICHITA JABRA  CLOUDY    73  67  81 S14G21    29.87R
WINFIELD       PTCLDY    72  67  84 S15       29.89S
$$

KSZ007>012-019>026-033>040-048>060-102>105-281200-
NORTHEAST KANSAS

CITY           SKY/WX    TMP DP  RH WIND       PRES   REMARKS
CONCORDIA      MOCLDY    73  68  84 S10       29.72F
EMPORIA        CLOUDY    71  67  87 S18G25    29.87R
LAWRENCE       CLOUDY    74  67  78 S12G22    29.87R
MANHATTAN      CLOUDY    75  67  76 S13       29.80F
OLATHE IND     CLOUDY    71  65  81 S13       29.90R
OLATHE EXE     CLOUDY    70  65  84 S12       29.90R
SALINA         LGT RAIN  73  68  84 S10       29.79F
TOPEKA BILLARD CLOUDY    75  68  78 S16G29    29.83R
TOPEKA FORBES  CLOUDY    75  67  76 S16G26    29.84S
$$




USA.gov is the U.S. government's official web portal to all federal, state and local government web resources and services.